Year,Month,Day,Hour,Minute,Value (Times are PST for temperature in C)
2009,09,17,00,00,11.20
2009,09,17,00,01,11.20
2009,09,17,00,02,11.20
2009,09,17,00,03,11.20
2009,09,17,00,04,11.20
2009,09,17,00,05,11.20
2009,09,17,00,06,11.20
2009,09,17,00,07,11.20
2009,09,17,00,08,11.20
2009,09,17,00,09,11.20
2009,09,17,00,10,11.20
2009,09,17,00,11,11.20
2009,09,17,00,12,11.20
2009,09,17,00,13,11.20
2009,09,17,00,14,11.20
2009,09,17,00,15,11.20
2009,09,17,00,16,11.20
2009,09,17,00,17,11.20
2009,09,17,00,18,11.20
2009,09,17,00,19,11.20
2009,09,17,00,20,11.20
2009,09,17,00,21,11.20
2009,09,17,00,22,11.20
2009,09,17,00,23,11.10
2009,09,17,00,24,11.10
2009,09,17,00,25,11.10
2009,09,17,00,26,11.10
2009,09,17,00,27,11.10
2009,09,17,00,28,11.10
2009,09,17,00,29,11.10
2009,09,17,00,30,11.10
2009,09,17,00,31,11.10
2009,09,17,00,32,11.10
2009,09,17,00,33,11.10
2009,09,17,00,34,11.10
2009,09,17,00,35,11.10
2009,09,17,00,36,11.00
2009,09,17,00,37,11.00
2009,09,17,00,38,11.00
2009,09,17,00,39,11.00
2009,09,17,00,40,11.00
2009,09,17,00,41,10.90
2009,09,17,00,42,10.90
2009,09,17,00,43,10.90
2009,09,17,00,44,10.90
2009,09,17,00,45,10.90
2009,09,17,00,46,10.90
2009,09,17,00,47,10.80
2009,09,17,00,48,10.80
2009,09,17,00,49,10.80
2009,09,17,00,50,10.80
2009,09,17,00,51,10.80
2009,09,17,00,52,10.80
2009,09,17,00,53,10.80
2009,09,17,00,54,10.80
2009,09,17,00,55,10.80
2009,09,17,00,56,10.80
2009,09,17,00,57,10.80
2009,09,17,00,58,10.90
2009,09,17,00,59,10.90
2009,09,17,01,00,10.90
2009,09,17,01,01,10.90
2009,09,17,01,02,11.00
2009,09,17,01,03,11.00
2009,09,17,01,04,11.00
2009,09,17,01,05,11.00
2009,09,17,01,06,11.00
2009,09,17,01,07,11.00
2009,09,17,01,08,11.00
2009,09,17,01,09,11.00
2009,09,17,01,10,11.00
2009,09,17,01,11,11.00
2009,09,17,01,12,11.00
2009,09,17,01,13,11.00
2009,09,17,01,14,10.90
2009,09,17,01,15,10.90
2009,09,17,01,16,10.90
2009,09,17,01,17,10.90
2009,09,17,01,18,10.90
2009,09,17,01,19,10.90
2009,09,17,01,20,10.90
2009,09,17,01,21,10.90
2009,09,17,01,22,10.90
2009,09,17,01,23,10.90
2009,09,17,01,24,10.90
2009,09,17,01,25,10.90
2009,09,17,01,26,10.90
2009,09,17,01,27,10.90
2009,09,17,01,28,10.90
2009,09,17,01,29,10.90
2009,09,17,01,30,10.90
2009,09,17,01,31,10.90
2009,09,17,01,32,10.80
2009,09,17,01,33,10.80
2009,09,17,01,34,10.80
2009,09,17,01,35,10.80
2009,09,17,01,36,10.80
2009,09,17,01,37,10.80
2009,09,17,01,38,10.80
2009,09,17,01,39,10.80
2009,09,17,01,40,10.80
2009,09,17,01,41,10.80
2009,09,17,01,42,10.80
2009,09,17,01,43,10.80
2009,09,17,01,44,10.90
2009,09,17,01,45,10.80
2009,09,17,01,46,10.90
2009,09,17,01,47,10.90
2009,09,17,01,48,10.90
2009,09,17,01,49,10.90
2009,09,17,01,50,10.90
2009,09,17,01,51,10.90
2009,09,17,01,52,10.90
2009,09,17,01,53,10.90
2009,09,17,01,54,10.90
2009,09,17,01,55,10.90
2009,09,17,01,56,10.90
2009,09,17,01,57,10.90
2009,09,17,01,58,10.90
2009,09,17,01,59,10.90
2009,09,17,02,00,10.90
2009,09,17,02,01,10.90
2009,09,17,02,02,10.90
2009,09,17,02,03,10.90
2009,09,17,02,04,10.90
2009,09,17,02,05,10.90
2009,09,17,02,06,10.90
2009,09,17,02,07,10.90
2009,09,17,02,08,10.90
2009,09,17,02,09,10.90
2009,09,17,02,10,10.90
2009,09,17,02,11,10.90
2009,09,17,02,12,10.90
2009,09,17,02,13,10.90
2009,09,17,02,14,10.90
2009,09,17,02,15,10.90
2009,09,17,02,16,10.90
2009,09,17,02,17,10.90
2009,09,17,02,18,10.90
2009,09,17,02,19,10.80
2009,09,17,02,20,10.80
2009,09,17,02,21,10.80
2009,09,17,02,22,10.80
2009,09,17,02,23,10.70
2009,09,17,02,24,10.70
2009,09,17,02,25,10.70
2009,09,17,02,26,10.70
2009,09,17,02,27,10.80
2009,09,17,02,28,10.80
2009,09,17,02,29,10.80
2009,09,17,02,30,10.80
2009,09,17,02,31,10.80
2009,09,17,02,32,10.70
2009,09,17,02,33,10.70
2009,09,17,02,34,10.70
2009,09,17,02,35,10.70
2009,09,17,02,36,10.60
2009,09,17,02,37,10.60
2009,09,17,02,38,10.60
2009,09,17,02,39,10.60
2009,09,17,02,40,10.60
2009,09,17,02,41,10.60
2009,09,17,02,42,10.50
2009,09,17,02,43,10.50
2009,09,17,02,44,10.50
2009,09,17,02,45,10.50
2009,09,17,02,46,10.50
2009,09,17,02,47,10.50
2009,09,17,02,48,10.50
2009,09,17,02,49,10.50
2009,09,17,02,50,10.40
2009,09,17,02,51,10.40
2009,09,17,02,52,10.40
2009,09,17,02,53,10.40
2009,09,17,02,54,10.40
2009,09,17,02,55,10.50
2009,09,17,02,56,10.50
2009,09,17,02,57,10.50
2009,09,17,02,58,10.50
2009,09,17,02,59,10.60
2009,09,17,03,00,10.60
2009,09,17,03,01,10.60
2009,09,17,03,02,10.60
2009,09,17,03,03,10.60
2009,09,17,03,04,10.60
2009,09,17,03,05,10.60
2009,09,17,03,06,10.60
2009,09,17,03,07,10.70
2009,09,17,03,08,10.70
2009,09,17,03,09,10.70
2009,09,17,03,10,10.70
2009,09,17,03,11,10.70
2009,09,17,03,12,10.70
2009,09,17,03,13,10.80
2009,09,17,03,14,10.80
2009,09,17,03,15,10.80
2009,09,17,03,16,10.80
2009,09,17,03,17,10.80
2009,09,17,03,18,10.80
2009,09,17,03,19,10.80
2009,09,17,03,20,10.90
2009,09,17,03,21,10.90
2009,09,17,03,22,10.90
2009,09,17,03,23,10.90
2009,09,17,03,24,11.00
2009,09,17,03,25,11.00
2009,09,17,03,26,11.00
2009,09,17,03,27,11.10
2009,09,17,03,28,11.10
2009,09,17,03,29,11.10
2009,09,17,03,30,11.10
2009,09,17,03,31,11.10
2009,09,17,03,32,11.10
2009,09,17,03,33,11.10
2009,09,17,03,34,11.10
2009,09,17,03,35,11.10
2009,09,17,03,36,11.10
2009,09,17,03,37,11.10
2009,09,17,03,38,11.00
2009,09,17,03,39,11.00
2009,09,17,03,40,11.10
2009,09,17,03,41,11.10
2009,09,17,03,42,11.10
2009,09,17,03,43,11.10
2009,09,17,03,44,11.10
2009,09,17,03,45,11.10
2009,09,17,03,46,11.10
2009,09,17,03,47,11.10
2009,09,17,03,48,11.10
2009,09,17,03,49,11.10
2009,09,17,03,50,11.10
2009,09,17,03,51,11.10
2009,09,17,03,52,11.10
2009,09,17,03,53,11.10
2009,09,17,03,54,11.10
2009,09,17,03,55,11.10
2009,09,17,03,56,11.10
2009,09,17,03,57,11.10
2009,09,17,03,58,11.10
2009,09,17,03,59,11.10
2009,09,17,04,00,11.10
2009,09,17,04,01,11.10
2009,09,17,04,02,11.10
2009,09,17,04,03,11.00
2009,09,17,04,04,11.00
2009,09,17,04,05,10.90
2009,09,17,04,06,10.90
2009,09,17,04,07,10.80
2009,09,17,04,08,10.80
2009,09,17,04,09,10.80
2009,09,17,04,10,10.70
2009,09,17,04,11,10.70
2009,09,17,04,12,10.60
2009,09,17,04,13,10.60
2009,09,17,04,14,10.50
2009,09,17,04,15,10.40
2009,09,17,04,16,10.40
2009,09,17,04,17,10.40
2009,09,17,04,18,10.30
2009,09,17,04,19,10.30
2009,09,17,04,20,10.30
2009,09,17,04,21,10.30
2009,09,17,04,22,10.20
2009,09,17,04,23,10.20
2009,09,17,04,24,10.20
2009,09,17,04,25,10.20
2009,09,17,04,26,10.20
2009,09,17,04,27,10.20
2009,09,17,04,28,10.20
2009,09,17,04,29,10.20
2009,09,17,04,30,10.20
2009,09,17,04,31,10.20
2009,09,17,04,32,10.20
2009,09,17,04,33,10.20
2009,09,17,04,34,10.20
2009,09,17,04,35,10.20
2009,09,17,04,36,10.20
2009,09,17,04,37,10.20
2009,09,17,04,38,10.20
2009,09,17,04,39,10.20
2009,09,17,04,40,10.20
2009,09,17,04,41,10.20
2009,09,17,04,42,10.10
2009,09,17,04,43,10.10
2009,09,17,04,44,10.10
2009,09,17,04,45,10.10
2009,09,17,04,46,10.10
2009,09,17,04,47,10.10
2009,09,17,04,48,10.10
2009,09,17,04,49,10.20
2009,09,17,04,50,10.20
2009,09,17,04,51,10.10
2009,09,17,04,52,10.10
2009,09,17,04,53,10.10
2009,09,17,04,54,10.10
2009,09,17,04,55,10.10
2009,09,17,04,56,10.00
2009,09,17,04,57,10.00
2009,09,17,04,58,10.00
2009,09,17,04,59,10.00
2009,09,17,05,00,9.90
2009,09,17,05,01,9.90
2009,09,17,05,02,9.90
2009,09,17,05,03,9.90
2009,09,17,05,04,9.80
2009,09,17,05,05,9.80
2009,09,17,05,06,9.80
2009,09,17,05,07,9.80
2009,09,17,05,08,9.70
2009,09,17,05,09,9.70
2009,09,17,05,10,9.70
2009,09,17,05,11,9.70
2009,09,17,05,12,9.70
2009,09,17,05,13,9.70
2009,09,17,05,14,9.60
2009,09,17,05,15,9.60
2009,09,17,05,16,9.60
2009,09,17,05,17,9.60
2009,09,17,05,18,9.60
2009,09,17,05,19,9.60
2009,09,17,05,20,9.60
2009,09,17,05,21,9.60
2009,09,17,05,22,9.60
2009,09,17,05,23,9.60
2009,09,17,05,24,9.60
2009,09,17,05,25,9.50
2009,09,17,05,26,9.50
2009,09,17,05,27,9.50
2009,09,17,05,28,9.50
2009,09,17,05,29,9.50
2009,09,17,05,30,9.50
2009,09,17,05,31,9.40
2009,09,17,05,32,9.40
2009,09,17,05,33,9.40
2009,09,17,05,34,9.40
2009,09,17,05,35,9.40
2009,09,17,05,36,9.40
2009,09,17,05,37,9.30
2009,09,17,05,38,9.30
2009,09,17,05,39,9.30
2009,09,17,05,40,9.30
2009,09,17,05,41,9.30
2009,09,17,05,42,9.20
2009,09,17,05,43,9.20
2009,09,17,05,44,9.20
2009,09,17,05,45,9.20
2009,09,17,05,46,9.20
2009,09,17,05,47,9.20
2009,09,17,05,48,9.20
2009,09,17,05,49,9.10
2009,09,17,05,50,9.10
2009,09,17,05,51,9.10
2009,09,17,05,52,9.10
2009,09,17,05,53,9.10
2009,09,17,05,54,9.10
2009,09,17,05,55,9.10
2009,09,17,05,56,9.00
2009,09,17,05,57,9.00
2009,09,17,05,58,9.00
2009,09,17,05,59,9.00
2009,09,17,06,00,9.00
2009,09,17,06,01,9.10
2009,09,17,06,02,9.10
2009,09,17,06,03,9.10
2009,09,17,06,04,9.10
2009,09,17,06,05,9.10
2009,09,17,06,06,9.10
2009,09,17,06,07,9.10
2009,09,17,06,08,9.10
2009,09,17,06,09,9.10
2009,09,17,06,10,9.10
2009,09,17,06,11,9.00
2009,09,17,06,12,9.00
2009,09,17,06,13,9.00
2009,09,17,06,14,9.00
2009,09,17,06,15,9.00
2009,09,17,06,16,9.00
2009,09,17,06,17,9.00
2009,09,17,06,18,9.00
2009,09,17,06,19,9.00
2009,09,17,06,20,9.00
2009,09,17,06,21,9.00
2009,09,17,06,22,9.10
2009,09,17,06,23,9.10
2009,09,17,06,24,9.00
2009,09,17,06,25,9.10
2009,09,17,06,26,9.10
2009,09,17,06,27,9.00
2009,09,17,06,28,9.00
2009,09,17,06,29,9.00
2009,09,17,06,30,9.00
2009,09,17,06,31,9.00
2009,09,17,06,32,9.00
2009,09,17,06,33,9.00
2009,09,17,06,34,9.00
2009,09,17,06,35,9.00
2009,09,17,06,36,9.00
2009,09,17,06,37,9.00
2009,09,17,06,38,8.90
2009,09,17,06,39,8.90
2009,09,17,06,40,8.90
2009,09,17,06,41,8.90
2009,09,17,06,42,8.90
2009,09,17,06,43,8.90
2009,09,17,06,44,8.90
2009,09,17,06,45,8.90
2009,09,17,06,46,8.90
2009,09,17,06,47,8.90
2009,09,17,06,48,8.90
2009,09,17,06,49,8.90
2009,09,17,06,50,8.90
2009,09,17,06,51,8.90
2009,09,17,06,52,8.90
2009,09,17,06,53,8.90
2009,09,17,06,54,8.90
2009,09,17,06,55,8.80
2009,09,17,06,56,8.80
2009,09,17,06,57,8.80
2009,09,17,06,58,8.80
2009,09,17,06,59,8.80
2009,09,17,07,00,8.80
2009,09,17,07,01,8.80
2009,09,17,07,02,8.80
2009,09,17,07,03,8.80
2009,09,17,07,04,8.80
2009,09,17,07,05,8.70
2009,09,17,07,06,8.70
2009,09,17,07,07,8.70
2009,09,17,07,08,8.70
2009,09,17,07,09,8.70
2009,09,17,07,10,8.70
2009,09,17,07,11,8.70
2009,09,17,07,12,8.70
2009,09,17,07,13,8.70
2009,09,17,07,14,8.70
2009,09,17,07,15,8.70
2009,09,17,07,16,8.70
2009,09,17,07,17,8.70
2009,09,17,07,18,8.70
2009,09,17,07,19,8.70
2009,09,17,07,20,8.80
2009,09,17,07,21,8.80
2009,09,17,07,22,8.80
2009,09,17,07,23,8.80
2009,09,17,07,24,8.80
2009,09,17,07,25,8.90
2009,09,17,07,26,9.00
2009,09,17,07,27,9.00
2009,09,17,07,28,9.10
2009,09,17,07,29,9.20
2009,09,17,07,30,9.20
2009,09,17,07,31,9.30
2009,09,17,07,32,9.30
2009,09,17,07,33,9.40
2009,09,17,07,34,9.40
2009,09,17,07,35,9.50
2009,09,17,07,36,9.60
2009,09,17,07,37,9.60
2009,09,17,07,38,9.60
2009,09,17,07,39,9.70
2009,09,17,07,40,9.70
2009,09,17,07,41,9.80
2009,09,17,07,42,9.80
2009,09,17,07,43,9.90
2009,09,17,07,44,9.90
2009,09,17,07,45,10.00
2009,09,17,07,46,10.10
2009,09,17,07,47,10.20
2009,09,17,07,48,10.20
2009,09,17,07,49,10.30
2009,09,17,07,50,10.30
2009,09,17,07,51,10.30
2009,09,17,07,52,10.40
2009,09,17,07,53,10.40
2009,09,17,07,54,10.40
2009,09,17,07,55,10.40
2009,09,17,07,56,10.50
2009,09,17,07,57,10.50
2009,09,17,07,58,10.50
2009,09,17,07,59,10.60
2009,09,17,08,00,10.60
2009,09,17,08,01,10.60
2009,09,17,08,02,10.60
2009,09,17,08,03,10.60
2009,09,17,08,04,10.70
2009,09,17,08,05,10.70
2009,09,17,08,06,10.70
2009,09,17,08,07,10.70
2009,09,17,08,08,10.70
2009,09,17,08,09,10.70
2009,09,17,08,10,10.70
2009,09,17,08,11,10.80
2009,09,17,08,12,10.80
2009,09,17,08,13,10.80
2009,09,17,08,14,10.80
2009,09,17,08,15,10.80
2009,09,17,08,16,10.80
2009,09,17,08,17,10.90
2009,09,17,08,18,10.90
2009,09,17,08,19,10.90
2009,09,17,08,20,11.00
2009,09,17,08,21,11.00
2009,09,17,08,22,11.00
2009,09,17,08,23,11.10
2009,09,17,08,24,11.10
2009,09,17,08,25,11.10
2009,09,17,08,26,11.20
2009,09,17,08,27,11.20
2009,09,17,08,28,11.20
2009,09,17,08,29,11.30
2009,09,17,08,30,11.30
2009,09,17,08,31,11.30
2009,09,17,08,32,11.40
2009,09,17,08,33,11.40
2009,09,17,08,34,11.40
2009,09,17,08,35,11.50
2009,09,17,08,36,11.50
2009,09,17,08,37,11.50
2009,09,17,08,38,11.60
2009,09,17,08,39,11.60
2009,09,17,08,40,11.60
2009,09,17,08,41,11.70
2009,09,17,08,42,11.70
2009,09,17,08,43,11.80
2009,09,17,08,44,11.80
2009,09,17,08,45,11.90
2009,09,17,08,46,12.00
2009,09,17,08,47,12.10
2009,09,17,08,48,12.10
2009,09,17,08,49,12.20
2009,09,17,08,50,12.30
2009,09,17,08,51,12.40
2009,09,17,08,52,12.50
2009,09,17,08,53,12.50
2009,09,17,08,54,12.60
2009,09,17,08,55,12.70
2009,09,17,08,56,12.70
2009,09,17,08,57,12.80
2009,09,17,08,58,12.90
2009,09,17,08,59,12.90
2009,09,17,09,00,13.00
2009,09,17,09,01,13.00
2009,09,17,09,02,13.10
2009,09,17,09,03,13.20
2009,09,17,09,04,13.20
2009,09,17,09,05,13.30
2009,09,17,09,06,13.30
2009,09,17,09,07,13.40
2009,09,17,09,08,13.40
2009,09,17,09,09,13.40
2009,09,17,09,10,13.50
2009,09,17,09,11,13.50
2009,09,17,09,12,13.50
2009,09,17,09,13,13.60
2009,09,17,09,14,13.60
2009,09,17,09,15,13.60
2009,09,17,09,16,13.70
2009,09,17,09,17,13.70
2009,09,17,09,18,13.70
2009,09,17,09,19,13.70
2009,09,17,09,20,13.70
2009,09,17,09,21,13.80
2009,09,17,09,22,13.90
2009,09,17,09,23,13.90
2009,09,17,09,24,14.00
2009,09,17,09,25,14.00
2009,09,17,09,26,14.10
2009,09,17,09,27,14.20
2009,09,17,09,28,14.30
2009,09,17,09,29,14.30
2009,09,17,09,30,14.40
2009,09,17,09,31,14.50
2009,09,17,09,32,14.60
2009,09,17,09,33,14.70
2009,09,17,09,34,14.70
2009,09,17,09,35,14.80
2009,09,17,09,36,14.80
2009,09,17,09,37,15.00
2009,09,17,09,38,15.00
2009,09,17,09,39,15.00
2009,09,17,09,40,15.00
2009,09,17,09,41,15.00
2009,09,17,09,42,15.00
2009,09,17,09,43,15.10
2009,09,17,09,44,15.20
2009,09,17,09,45,15.30
2009,09,17,09,46,15.40
2009,09,17,09,47,15.40
2009,09,17,09,48,15.50
2009,09,17,09,49,15.50
2009,09,17,09,50,15.60
2009,09,17,09,51,15.70
2009,09,17,09,52,15.70
2009,09,17,09,53,15.80
2009,09,17,09,54,15.90
2009,09,17,09,55,16.00
2009,09,17,09,56,16.00
2009,09,17,09,57,16.10
2009,09,17,09,58,16.20
2009,09,17,09,59,16.20
2009,09,17,10,00,16.20
2009,09,17,10,01,16.20
2009,09,17,10,02,16.20
2009,09,17,10,03,16.20
2009,09,17,10,04,16.20
2009,09,17,10,05,16.20
2009,09,17,10,06,16.20
2009,09,17,10,07,16.20
2009,09,17,10,08,16.20
2009,09,17,10,09,16.20
2009,09,17,10,10,16.30
2009,09,17,10,11,16.30
2009,09,17,10,12,16.40
2009,09,17,10,13,16.40
2009,09,17,10,14,16.50
2009,09,17,10,15,16.60
2009,09,17,10,16,16.70
2009,09,17,10,17,16.80
2009,09,17,10,18,16.90
2009,09,17,10,19,16.90
2009,09,17,10,20,17.00
2009,09,17,10,21,17.00
2009,09,17,10,22,17.00
2009,09,17,10,23,16.80
2009,09,17,10,24,16.60
2009,09,17,10,25,16.40
2009,09,17,10,26,16.30
2009,09,17,10,27,16.20
2009,09,17,10,28,16.20
2009,09,17,10,29,16.20
2009,09,17,10,30,16.20
2009,09,17,10,31,16.20
2009,09,17,10,32,16.20
2009,09,17,10,33,16.20
2009,09,17,10,34,16.30
2009,09,17,10,35,16.40
2009,09,17,10,36,16.40
2009,09,17,10,37,16.50
2009,09,17,10,38,16.60
2009,09,17,10,39,16.70
2009,09,17,10,40,16.60
2009,09,17,10,41,16.60
2009,09,17,10,42,16.50
2009,09,17,10,43,16.40
2009,09,17,10,44,16.40
2009,09,17,10,45,16.30
2009,09,17,10,46,16.30
2009,09,17,10,47,16.30
2009,09,17,10,48,16.10
2009,09,17,10,49,16.00
2009,09,17,10,50,15.90
2009,09,17,10,51,15.90
2009,09,17,10,52,15.90
2009,09,17,10,53,15.80
2009,09,17,10,54,15.50
2009,09,17,10,55,15.10
2009,09,17,10,56,14.80
2009,09,17,10,57,14.50
2009,09,17,10,58,14.30
2009,09,17,10,59,14.00
2009,09,17,11,00,13.80
2009,09,17,11,01,13.60
2009,09,17,11,02,13.30
2009,09,17,11,03,13.10
2009,09,17,11,04,13.00
2009,09,17,11,05,12.90
2009,09,17,11,06,12.80
2009,09,17,11,07,12.70
2009,09,17,11,08,12.70
2009,09,17,11,09,12.70
2009,09,17,11,10,12.70
2009,09,17,11,11,12.70
2009,09,17,11,12,12.60
2009,09,17,11,13,12.60
2009,09,17,11,14,12.60
2009,09,17,11,15,12.50
2009,09,17,11,16,12.50
2009,09,17,11,17,12.50
2009,09,17,11,18,12.50
2009,09,17,11,19,12.60
2009,09,17,11,20,12.60
2009,09,17,11,21,12.60
2009,09,17,11,22,12.60
2009,09,17,11,23,12.60
2009,09,17,11,24,12.50
2009,09,17,11,25,12.50
2009,09,17,11,26,12.40
2009,09,17,11,27,12.40
2009,09,17,11,28,12.30
2009,09,17,11,29,12.30
2009,09,17,11,30,12.30
2009,09,17,11,31,12.30
2009,09,17,11,32,12.30
2009,09,17,11,33,12.40
2009,09,17,11,34,12.40
2009,09,17,11,35,12.40
2009,09,17,11,36,12.50
2009,09,17,11,37,12.50
2009,09,17,11,38,12.50
2009,09,17,11,39,12.50
2009,09,17,11,40,12.60
2009,09,17,11,41,12.60
2009,09,17,11,42,12.60
2009,09,17,11,43,12.60
2009,09,17,11,44,12.60
2009,09,17,11,45,12.70
2009,09,17,11,46,12.70
2009,09,17,11,47,12.60
2009,09,17,11,48,12.60
2009,09,17,11,49,12.60
2009,09,17,11,50,12.60
2009,09,17,11,51,12.60
2009,09,17,11,52,12.60
2009,09,17,11,53,12.60
2009,09,17,11,54,12.60
2009,09,17,11,55,12.60
2009,09,17,11,56,12.60
2009,09,17,11,57,12.60
2009,09,17,11,58,12.60
2009,09,17,11,59,12.60
2009,09,17,12,00,12.60
2009,09,17,12,01,12.60
2009,09,17,12,02,12.60
2009,09,17,12,03,12.70
2009,09,17,12,04,12.60
2009,09,17,12,05,12.60
2009,09,17,12,06,12.70
2009,09,17,12,07,12.70
2009,09,17,12,08,12.70
2009,09,17,12,09,12.80
2009,09,17,12,10,12.80
2009,09,17,12,11,12.90
2009,09,17,12,12,12.90
2009,09,17,12,13,13.00
2009,09,17,12,14,13.00
2009,09,17,12,15,13.10
2009,09,17,12,16,13.10
2009,09,17,12,17,13.20
2009,09,17,12,18,13.30
2009,09,17,12,19,13.40
2009,09,17,12,20,13.50
2009,09,17,12,21,13.50
2009,09,17,12,22,13.50
2009,09,17,12,23,13.40
2009,09,17,12,24,13.40
2009,09,17,12,25,13.40
2009,09,17,12,26,13.40
2009,09,17,12,27,13.40
2009,09,17,12,28,13.50
2009,09,17,12,29,13.50
2009,09,17,12,30,13.50
2009,09,17,12,31,13.40
2009,09,17,12,32,13.40
2009,09,17,12,33,13.30
2009,09,17,12,34,13.30
2009,09,17,12,35,13.30
2009,09,17,12,36,13.30
2009,09,17,12,37,13.30
2009,09,17,12,38,13.30
2009,09,17,12,39,13.30
2009,09,17,12,40,13.30
2009,09,17,12,41,13.30
2009,09,17,12,42,13.30
2009,09,17,12,43,13.20
2009,09,17,12,44,13.20
2009,09,17,12,45,13.20
2009,09,17,12,46,13.10
2009,09,17,12,47,13.10
2009,09,17,12,48,13.10
2009,09,17,12,49,13.10
2009,09,17,12,50,13.20
2009,09,17,12,51,13.20
2009,09,17,12,52,13.30
2009,09,17,12,53,13.40
2009,09,17,12,54,13.40
2009,09,17,12,55,13.40
2009,09,17,12,56,13.40
2009,09,17,12,57,13.40
2009,09,17,12,58,13.40
2009,09,17,12,59,13.40
2009,09,17,13,00,13.40
2009,09,17,13,01,13.50
2009,09,17,13,02,13.50
2009,09,17,13,03,13.50
2009,09,17,13,04,13.50
2009,09,17,13,05,13.50
2009,09,17,13,06,13.50
2009,09,17,13,07,13.50
2009,09,17,13,08,13.50
2009,09,17,13,09,13.60
2009,09,17,13,10,13.60
2009,09,17,13,11,13.50
2009,09,17,13,12,13.50
2009,09,17,13,13,13.50
2009,09,17,13,14,13.50
2009,09,17,13,15,13.50
2009,09,17,13,16,13.50
2009,09,17,13,17,13.50
2009,09,17,13,18,13.50
2009,09,17,13,19,13.60
2009,09,17,13,20,13.60
2009,09,17,13,21,13.60
2009,09,17,13,22,13.60
2009,09,17,13,23,13.60
2009,09,17,13,24,13.60
2009,09,17,13,25,13.60
2009,09,17,13,26,13.60
2009,09,17,13,27,13.70
2009,09,17,13,28,13.70
2009,09,17,13,29,13.70
2009,09,17,13,30,13.70
2009,09,17,13,31,13.70
2009,09,17,13,32,13.70
2009,09,17,13,33,13.70
2009,09,17,13,34,13.70
2009,09,17,13,35,13.60
2009,09,17,13,36,13.60
2009,09,17,13,37,13.50
2009,09,17,13,38,13.50
2009,09,17,13,39,13.50
2009,09,17,13,40,13.40
2009,09,17,13,41,13.40
2009,09,17,13,42,13.30
2009,09,17,13,43,13.30
2009,09,17,13,44,13.20
2009,09,17,13,45,13.20
2009,09,17,13,46,13.10
2009,09,17,13,47,13.10
2009,09,17,13,48,13.10
2009,09,17,13,49,13.10
2009,09,17,13,50,13.20
2009,09,17,13,51,13.20
2009,09,17,13,52,13.30
2009,09,17,13,53,13.30
2009,09,17,13,54,13.40
2009,09,17,13,55,13.40
2009,09,17,13,56,13.50
2009,09,17,13,57,13.50
2009,09,17,13,58,13.60
2009,09,17,13,59,13.60
2009,09,17,14,00,13.60
2009,09,17,14,01,13.60
2009,09,17,14,02,13.70
2009,09,17,14,03,13.70
2009,09,17,14,04,13.70
2009,09,17,14,05,13.70
2009,09,17,14,06,13.80
2009,09,17,14,07,13.80
2009,09,17,14,08,13.80
2009,09,17,14,09,13.80
2009,09,17,14,10,13.80
2009,09,17,14,11,13.80
2009,09,17,14,12,13.80
2009,09,17,14,13,13.80
2009,09,17,14,14,13.90
2009,09,17,14,15,13.90
2009,09,17,14,16,14.00
2009,09,17,14,17,14.00
2009,09,17,14,18,14.10
2009,09,17,14,19,14.10
2009,09,17,14,20,14.20
2009,09,17,14,21,14.20
2009,09,17,14,22,14.20
2009,09,17,14,23,14.20
2009,09,17,14,24,14.20
2009,09,17,14,25,14.20
2009,09,17,14,26,14.20
2009,09,17,14,27,14.10
2009,09,17,14,28,14.10
2009,09,17,14,29,14.10
2009,09,17,14,30,14.10
2009,09,17,14,31,14.00
2009,09,17,14,32,14.00
2009,09,17,14,33,14.00
2009,09,17,14,34,14.00
2009,09,17,14,35,14.00
2009,09,17,14,36,14.10
2009,09,17,14,37,14.10
2009,09,17,14,38,14.20
2009,09,17,14,39,14.30
2009,09,17,14,40,14.40
2009,09,17,14,41,14.40
2009,09,17,14,42,14.50
2009,09,17,14,43,14.50
2009,09,17,14,44,14.60
2009,09,17,14,45,14.60
2009,09,17,14,46,14.60
2009,09,17,14,47,14.60
2009,09,17,14,48,14.70
2009,09,17,14,49,14.70
2009,09,17,14,50,14.70
2009,09,17,14,51,14.80
2009,09,17,14,52,14.80
2009,09,17,14,53,14.90
2009,09,17,14,54,15.00
2009,09,17,14,55,15.00
2009,09,17,14,56,15.00
2009,09,17,14,57,15.00
2009,09,17,14,58,15.00
2009,09,17,14,59,15.10
2009,09,17,15,00,15.20
2009,09,17,15,01,15.30
2009,09,17,15,02,15.40
2009,09,17,15,03,15.50
2009,09,17,15,04,15.50
2009,09,17,15,05,15.60
2009,09,17,15,06,15.70
2009,09,17,15,07,15.80
2009,09,17,15,08,15.80
2009,09,17,15,09,16.00
2009,09,17,15,10,16.00
2009,09,17,15,11,16.10
2009,09,17,15,12,16.20
2009,09,17,15,13,16.30
2009,09,17,15,14,16.40
2009,09,17,15,15,16.50
2009,09,17,15,16,16.60
2009,09,17,15,17,16.70
2009,09,17,15,18,16.80
2009,09,17,15,19,16.90
2009,09,17,15,20,17.00
2009,09,17,15,21,17.10
2009,09,17,15,22,17.10
2009,09,17,15,23,17.20
2009,09,17,15,24,17.30
2009,09,17,15,25,17.40
2009,09,17,15,26,17.50
2009,09,17,15,27,17.60
2009,09,17,15,28,17.60
2009,09,17,15,29,17.70
2009,09,17,15,30,17.70
2009,09,17,15,31,17.70
2009,09,17,15,32,17.60
2009,09,17,15,33,17.60
2009,09,17,15,34,17.60
2009,09,17,15,35,17.50
2009,09,17,15,36,17.50
2009,09,17,15,37,17.40
2009,09,17,15,38,17.40
2009,09,17,15,39,17.40
2009,09,17,15,40,17.30
2009,09,17,15,41,17.30
2009,09,17,15,42,17.30
2009,09,17,15,43,17.30
2009,09,17,15,44,17.30
2009,09,17,15,45,17.30
2009,09,17,15,46,17.30
2009,09,17,15,47,17.30
2009,09,17,15,48,17.20
2009,09,17,15,49,17.20
2009,09,17,15,50,17.30
2009,09,17,15,51,17.30
2009,09,17,15,52,17.40
2009,09,17,15,53,17.50
2009,09,17,15,54,17.60
2009,09,17,15,55,17.70
2009,09,17,15,56,17.80
2009,09,17,15,57,17.90
2009,09,17,15,58,18.00
2009,09,17,15,59,18.20
2009,09,17,16,00,18.30
2009,09,17,16,01,18.40
2009,09,17,16,02,18.50
2009,09,17,16,03,18.60
2009,09,17,16,04,18.60
2009,09,17,16,05,18.50
2009,09,17,16,06,18.40
2009,09,17,16,07,18.30
2009,09,17,16,08,18.20
2009,09,17,16,09,18.20
2009,09,17,16,10,18.10
2009,09,17,16,11,18.10
2009,09,17,16,12,18.10
2009,09,17,16,13,18.00
2009,09,17,16,14,18.00
2009,09,17,16,15,17.90
2009,09,17,16,16,17.90
2009,09,17,16,17,17.80
2009,09,17,16,18,17.80
2009,09,17,16,19,17.80
2009,09,17,16,20,17.80
2009,09,17,16,21,17.80
2009,09,17,16,22,17.80
2009,09,17,16,23,17.90
2009,09,17,16,24,17.90
2009,09,17,16,25,17.90
2009,09,17,16,26,18.00
2009,09,17,16,27,18.10
2009,09,17,16,28,18.20
2009,09,17,16,29,18.20
2009,09,17,16,30,18.20
2009,09,17,16,31,18.30
2009,09,17,16,32,18.30
2009,09,17,16,33,18.40
2009,09,17,16,34,18.50
2009,09,17,16,35,18.50
2009,09,17,16,36,18.60
2009,09,17,16,37,18.60
2009,09,17,16,38,18.60
2009,09,17,16,39,18.60
2009,09,17,16,40,18.60
2009,09,17,16,41,18.60
2009,09,17,16,42,18.60
2009,09,17,16,43,18.60
2009,09,17,16,44,18.60
2009,09,17,16,45,18.60
2009,09,17,16,46,18.60
2009,09,17,16,47,18.50
2009,09,17,16,48,18.50
2009,09,17,16,49,18.50
2009,09,17,16,50,18.40
2009,09,17,16,51,18.40
2009,09,17,16,52,18.40
2009,09,17,16,53,18.40
2009,09,17,16,54,18.40
2009,09,17,16,55,18.40
2009,09,17,16,56,18.40
2009,09,17,16,57,18.40
2009,09,17,16,58,18.40
2009,09,17,16,59,18.40
2009,09,17,17,00,18.30
2009,09,17,17,01,18.20
2009,09,17,17,02,18.20
2009,09,17,17,03,18.20
2009,09,17,17,04,18.10
2009,09,17,17,05,18.00
2009,09,17,17,06,18.00
2009,09,17,17,07,17.90
2009,09,17,17,08,17.80
2009,09,17,17,09,17.80
2009,09,17,17,10,17.80
2009,09,17,17,11,17.70
2009,09,17,17,12,17.70
2009,09,17,17,13,17.70
2009,09,17,17,14,17.70
2009,09,17,17,15,17.70
2009,09,17,17,16,17.70
2009,09,17,17,17,17.70
2009,09,17,17,18,17.70
2009,09,17,17,19,17.70
2009,09,17,17,20,17.80
2009,09,17,17,21,17.80
2009,09,17,17,22,17.80
2009,09,17,17,23,17.90
2009,09,17,17,24,18.00
2009,09,17,17,25,18.00
2009,09,17,17,26,18.10